Regional Weather Roundup
Issued by NWS

Home | Current Version | Previous Version | Graphics & Text | Print | Product List | Glossary Off
Versions: 1 2 3 4 5 6 7 8 9 10 11 12 13 14 15 16 17 18 19 20 21 22 23 24 25 26 27 28 29 30 31 32 33 34 35 36 37 38 39 40 41 42 43 44 45 46 47 48 49 50

990
ASUS43 KFSD 251002
RWRSD

WEATHER ROUNDUP FOR SOUTH DAKOTA
NATIONAL WEATHER SERVICE SIOUX FALLS SD
500 AM CDT TUE APR 25 2017

NOTE: "FAIR" INDICATES FEW OR NO CLOUDS BELOW 12,000 FEET WITH NO
SIGNIFICANT WEATHER AND/OR OBSTRUCTIONS TO VISIBILITY.


SDZ001>005-009-010-012>017-251100-
NORTHWEST AND NORTH CENTRAL SOUTH DAKOTA

CITY           SKY/WX    TMP DP  RH WIND       PRES   REMARKS
BUFFALO          N/A     30  27  88 NE16      29.64R WCI  19
FAITH            N/A     31  30  96 N12       29.70R WCI  22
MOBRIDGE       CLOUDY    34  29  82 N16G24    29.68S WCI  24
$$

SDZ012>016-024>037-041>051-057-063-072>074-251100-
SOUTHWEST AND SOUTH CENTRAL SOUTH DAKOTA

CITY           SKY/WX    TMP DP  RH WIND       PRES   REMARKS
RAPID CTY ARPT LGT SNOW  34  32  92 NE8       29.63F FOG     WCI  27
PIERRE         CLOUDY    35  31  85 N15       29.66R WCI  25
CUSTER         LGT SNOW  30  28  92 NE10      29.56R FOG     WCI  21
ELLSWORTH AFB  LGT SNOW  35  35 100 NE8       29.63  FOG     WCI  28
PHILIP         CLOUDY    36  32  85 NE10      29.68R
PINE RIDGE     LGT RAIN  38  37  97 E23G31    29.54F
SPEARFISH      LGT SNOW  32  32 100 MISG      29.63R
WINNER         CLOUDY    38  35  89 NE13      29.63S
$$

SDZ004>011-016>023-039-040-251100-
NORTHEAST SOUTH DAKOTA

CITY           SKY/WX    TMP DP  RH WIND       PRES   REMARKS
ABERDEEN       CLOUDY    34  30  85 N17       29.68S WCI  23
WATERTOWN      CLOUDY    35  35 100 N16       29.58F FOG     WCI  25
BROOKINGS      CLOUDY    38  36  92 N13       29.57S
SISSETON         N/A     34  34 100 N21       29.63R WCI  22
$$

SDZ017-020-022-023-036>040-048>070-251100-
SOUTHEAST SOUTH DAKOTA

CITY           SKY/WX    TMP DP  RH WIND       PRES   REMARKS
SIOUX FALLS    CLOUDY    42  38  85 N15       29.57S
HURON          CLOUDY    36  35  96 N16       29.65R
CHAMBERLAIN    CLOUDY    39  37  92 NW12G17   29.63F
MITCHELL       CLOUDY    38  36  92 N16       29.63S
YANKTON        CLOUDY    41  36  81 N14       29.59S
$$

ABBREVIATIONS USED IN REMARKS
   TC - TEMPERATURE IN CELSIUS
  WCI - WIND CHILL INDEX
   HX - HEAT INDEX
  VSB - VISIBILITY





USA.gov is the U.S. government's official web portal to all federal, state and local government web resources and services.